FALCON 9 DEB (56366 NORAD) Tracking and Keplerian Element Data

This shows tracking and keplerian element data for the satellite.

Feedback or suggestion? Click here.




ElementValue
Catalog56366
NameFALCON 9 DEB
Epoch Orbit756
Epoch Day161.96250258
Epoch Year2023
RAAN166.6753
Inclination97.6516
Eccentricity0.0006698
Argument of Perigee129.6999
Mean Anonmoly230.4886
Mean Motion16.29579146
Decay Rate0.0324527
L11 56366U 23058BB 23161.96250258 .03245270 26496-5 77357-3 0 9991
L22 56366 97.6516 166.6753 0006698 129.6999 230.4886 16.29579146 7569



Live tracking and technical data element details for FALCON 9 DEB (NORAD 56366). FALCON 9 DEB can be tracked NOW for your location showing map with azimuth and elevation plus other details from your city location.







IsCatalogInMostPopularTable: catalog: 56366, numindb: 12
Update: records affected: 1



GetName: 56366 FALCON 9 DEB

Hit Count: updated at: Thu, 28 Sep 2023 04:23:45 GMT